Location: Nians�bougou
(13.2321°N, 4.9818°W)
Time: 17:48:23
(UTC+00:00)

Cosmos 1943 Rocket - Pass Details

Date: 18 February 2020
Orbit: 813 x 842 km, 71.0° (Epoch: 03 April)

Event Time Altitude Azimuth Distance (km) Brightness Sun altitude
Rises 06:01:12 0° 348° (NNW) 3,327 5.1 -10.5°
Reaches altitude 10° 06:03:38 10° 351° (N) 2,396 4.4 -9.9°
Maximum altitude 06:09:05 68° 73° (ENE) 875 2.6 -8.6°
Drops below altitude 10° 06:14:33 10° 156° (SSE) 2,407 5.1 -7.3°
Sets 06:16:59 0° 159° (SSE) 3,342 5.8 -6.7°
